Starlink 31115

operational
NORAD ID: 58729 Int'l Des: 2024-005 Owner: SPXS Country: US Constellation: starlink
LEOCIRCULAR

About Starlink 31115

Description loading...

Live Position

Loading 3D Globe...

Upcoming Passes

Altitude History

Altitude vs Time

uPlot chart will show altitude changes over time

Two-Line Element Set

1 58729U 24005B 25256.84176498 .00000388 00000-0 43810-4 0 9998
2 58729 43.0029 102.1725 0001058 270.0041 90.0680 15.02541623 93810
Epoch: Sep 13, 2025 • Age: 39 hours

Current Status

Altitude 562.4 km
Velocity 7.59 km/s
Sub-Earth Point 40.47°N, 48.65°E
Launch Date Jan 7, 2024
Age 1.6 years
Type internet

Technical Details

Classification Payload
Mass 730.00 kg
Dry Mass 700.00 kg
Total Mass 730.00 kg
Length 0.30 m
Diameter 4.10 m
Span 29.00 m
Shape Box + pan
Manufacturer SPXS
Bus Type Starlink V2M
Phase Status In Orbit
Owner/State SPXS/US

Large Constellations

Loading constellations...